This is the latest recevied weather packets stored in our database for station/object N6DZK. If no packets are shown the sender has not sent any weather packets the latest 10 day(s).
| Time | Temp. | Humidity | Pressure | Rain* | Wind** | Luminosity | Snow |
|---|---|---|---|---|---|---|---|
| 1777782473 | 13.89° C | 77% | 1012.5 hPa | 0 mm | - | 0 W/m² | - |
| 1777782170 | 13.89° C | 77% | 1012.4 hPa | 0 mm | - | 0 W/m² | - |
| 1777781865 | 13.89° C | 77% | 1012.3 hPa | 0 mm | - | 0 W/m² | - |
| 1777781564 | 13.89° C | 77% | 1012.3 hPa | 0 mm | - | 0 W/m² | - |
| 1777781261 | 13.89° C | 77% | 1012.3 hPa | 0 mm | - | 0 W/m² | - |
| 1777780958 | 13.89° C | 77% | 1012.2 hPa | 0 mm | - | 0 W/m² | - |
| 1777780655 | 13.89° C | 77% | 1012 hPa | 0 mm | - | 0 W/m² | - |
| 1777780352 | 13.89° C | 76% | 1012 hPa | 0 mm | - | 0 W/m² | - |
| 1777780049 | 13.89° C | 77% | 1012 hPa | 0 mm | - | 0 W/m² | - |
| 1777779746 | 13.89° C | 76% | 1011.7 hPa | 0 mm | - | 0 W/m² | - |
| 1777779444 | 13.89° C | 76% | 1011.6 hPa | 0 mm | - | 0 W/m² | - |
| 1777779141 | 13.89° C | 76% | 1011.7 hPa | 0 mm | - | 0 W/m² | - |
| 1777778840 | 14.44° C | 76% | 1011.3 hPa | 0 mm | - | 0 W/m² | - |
| 1777778538 | 14.44° C | 75% | 1011.4 hPa | 0 mm | - | 0 W/m² | - |
| 1777778234 | 14.44° C | 75% | 1011.5 hPa | 0 mm | - | 0 W/m² | - |
| 1777777933 | 14.44° C | 75% | 1011.3 hPa | 0 mm | - | 0 W/m² | - |
| 1777777629 | 15° C | 74% | 1011.3 hPa | 0 mm | - | 1 W/m² | - |
| 1777777325 | 15° C | 74% | 1011.3 hPa | 0 mm | - | 2 W/m² | - |
| 1777777022 | 15° C | 73% | 1011.2 hPa | 0 mm | - | 3 W/m² | - |
| 1777776720 | 15° C | 73% | 1011.3 hPa | 0 mm | - | 4 W/m² | - |
| 1777776416 | 15.56° C | 72% | 1011.2 hPa | 0 mm | - | 7 W/m² | - |
| 1777776114 | 15.56° C | 72% | 1011.1 hPa | 0 mm | - | 11 W/m² | - |
| 1777775810 | 15.56° C | 71% | 1011.1 hPa | 0 mm | - | 16 W/m² | - |
| 1777775507 | 16.11° C | 71% | 1010.9 hPa | 0 mm | - | 22 W/m² | - |
| 1777775203 | 16.11° C | 71% | 1010.9 hPa | 0 mm | - | 29 W/m² | - |
* Rain latest hour (hover to see other rain measurements)
** Current wind speed in m/s (hover to see current wind gust speed)